Change the Weather History Date:

Tuesday, November 22, 2011

  Actual Average Record
Temperature  
Mean Temperature 38 °F 35 °F  
Max Temperature 45 °F 45 °F 70 °F (1966)
Min Temperature 31 °F 26 °F -4 °F (1871)
Degree Days  
Heating Degree Days 27 30  
Month to date heating degree days 498 529  
Since 1 July heating degree days 895 1014  
Cooling Degree Days 0 0  
Month to date cooling degree days 0 0  
Year to date cooling degree days 1378 1112  
Moisture  
Dew Point 36 °F    
Average Humidity 85    
Maximum Humidity 100    
Minimum Humidity 70    
Precipitation  
Precipitation T in 0.05 in 0.80 in (1999)
Month to date precipitation 1.26 1.26  
Year to date precipitation 26.94 29.20  
Snow  
Snow 0.00 in 0.10 in - ()
Month to date snowfall 1.3 1.3  
Since 1 July snowfall 1.3 1.6  
Snow Depth 0.00 in    
Sea Level Pressure  
Sea Level Pressure 30.08 in    
Wind  
Wind Speed 4 mph (North)    
Max Wind Speed 8 mph    
Max Gust Speed 10 mph    
Visibility 3 miles    
Events Fog    
T = Trace of Precipitation, MM = Missing Value Source: NWS Daily Summary

Daily Weather History Graph

Daily Weather History Graph

Search for Another Location

Airport or City:

Trip Planner

Search our weather history database for the weather conditions in past years. The results will help you decide how hot, cold, wet, or windy it might be!

Date:

Astronomy

Nov. 22, 2011 Rise Set
Actual Time 7:19 AM CST 4:59 PM CST
Civil Twilight 6:49 AM CST 5:29 PM CST
Nautical Twilight 6:15 AM CST 6:03 PM CST
Astronomical Twilight 5:42 AM CST 6:36 PM CST
Moon 4:10 AM CST (11/22) 3:00 PM CST (11/22)
Length of Visible Light 10h 39m
Length of Day
9h 39m
Waning Crescent, 9% of the Moon is Illuminated
Nov 22
Waning Crescent
Nov 25
New
Dec 2
First Quarter
Dec 10
Full
Dec 17
Last Quarter

Hourly Weather History & Observations

Time (CST) Temp. Windchill Dew Point Humidity Pressure Visibility Wind Dir Wind Speed Gust Speed Precip Events Conditions
12:52 AM 36.0 °F - 35.1 °F 97% 30.15 in 1.0 mi Calm Calm - 0.00 in   Light Drizzle
1:23 AM 35.6 °F 32.8 °F 35.6 °F 100% 30.12 in 0.5 mi North 3.5 mph - 0.00 in   Light Drizzle
1:52 AM 36.0 °F 33.3 °F 35.1 °F 97% 30.14 in 0.5 mi North 3.5 mph - 0.00 in Fog Light Drizzle
2:52 AM 36.0 °F 31.1 °F 35.1 °F 97% 30.12 in 0.5 mi NNW 5.8 mph - 0.00 in Fog Fog
3:52 AM 36.0 °F 33.3 °F 36.0 °F 100% 30.10 in 0.2 mi NNW 3.5 mph - N/A Fog Fog
4:52 AM 37.0 °F 34.5 °F 36.0 °F 96% 30.08 in 0.2 mi North 3.5 mph - N/A Fog Fog
5:52 AM 37.0 °F 32.4 °F 36.0 °F 96% 30.10 in 0.2 mi NNW 5.8 mph - N/A Fog Fog
6:52 AM 36.0 °F 32.1 °F 36.0 °F 100% 30.10 in 0.2 mi North 4.6 mph - N/A Fog Fog
7:52 AM 37.0 °F 33.3 °F 36.0 °F 96% 30.10 in 0.2 mi North 4.6 mph - N/A Fog Fog
8:52 AM 37.0 °F 34.5 °F 36.0 °F 96% 30.10 in 0.2 mi NNW 3.5 mph - N/A Fog Fog
9:29 AM 37.4 °F 34.9 °F 37.4 °F 100% 30.07 in 0.5 mi North 3.5 mph - N/A Fog Fog
9:52 AM 37.9 °F 34.4 °F 37.0 °F 97% 30.09 in 0.5 mi NNW 4.6 mph - N/A Fog Fog
10:02 AM 37.4 °F 33.8 °F 37.4 °F 100% 30.07 in 1.0 mi NNW 4.6 mph - N/A   Overcast
10:52 AM 39.0 °F 35.7 °F 37.0 °F 93% 30.09 in 1.5 mi North 4.6 mph - N/A   Overcast
11:11 AM 39.2 °F 35.9 °F 37.4 °F 93% 30.06 in 1.8 mi NNW 4.6 mph - N/A   Overcast
11:21 AM 39.2 °F 35.9 °F 37.4 °F 93% 30.06 in 2.0 mi North 4.6 mph - N/A   Overcast
11:52 AM 41.0 °F 39.0 °F 37.0 °F 86% 30.06 in 2.0 mi North 3.5 mph - N/A   Overcast
12:03 PM 41.0 °F 38.0 °F 37.4 °F 87% 30.04 in 3.0 mi North 4.6 mph - N/A   Overcast
12:36 PM 42.8 °F 41.1 °F 37.4 °F 81% 30.03 in 4.0 mi NNW 3.5 mph - N/A   Overcast
12:52 PM 43.0 °F 40.3 °F 37.9 °F 82% 30.05 in 4.0 mi North 4.6 mph - N/A   Haze
12:59 PM 42.8 °F 40.1 °F 37.4 °F 81% 30.04 in 4.0 mi NNE 4.6 mph - N/A   Haze
1:06 PM 42.8 °F 41.1 °F 37.4 °F 81% 30.03 in 4.0 mi North 3.5 mph - N/A   Haze
1:43 PM 42.8 °F 41.1 °F 37.4 °F 81% 30.03 in 4.0 mi NNE 3.5 mph - N/A   Haze
1:52 PM 44.1 °F 42.5 °F 37.9 °F 79% 30.05 in 4.0 mi NNE 3.5 mph - N/A   Haze
2:22 PM 44.6 °F - 37.4 °F 76% 30.03 in 5.0 mi Calm Calm - N/A   Haze
2:52 PM 44.1 °F 42.5 °F 37.9 °F 79% 30.06 in 5.0 mi NW 3.5 mph - N/A   Haze
3:35 PM 44.6 °F 43.1 °F 37.4 °F 76% 30.04 in 4.0 mi West 3.5 mph - N/A   Haze
3:52 PM 44.6 °F - 37.4 °F 76% 30.05 in 4.0 mi Calm Calm - N/A   Haze
4:52 PM 44.1 °F - 37.9 °F 79% 30.07 in 5.0 mi Calm Calm - N/A   Haze
5:52 PM 44.1 °F - 36.0 °F 73% 30.08 in 6.0 mi Calm Calm - N/A   Haze
6:52 PM 44.1 °F 41.5 °F 36.0 °F 73% 30.11 in 7.0 mi SW 4.6 mph - N/A   Overcast
7:23 PM 42.8 °F - 35.6 °F 76% 30.09 in 8.0 mi Calm Calm - N/A   Partly Cloudy
7:52 PM 42.1 °F 40.2 °F 36.0 °F 79% 30.12 in 8.0 mi South 3.5 mph - N/A   Clear
8:52 PM 36.0 °F 33.3 °F 33.1 °F 89% 30.14 in 6.0 mi ESE 3.5 mph - N/A   Clear
9:52 PM 33.8 °F 30.8 °F 32.0 °F 93% 30.15 in 5.0 mi SE 3.5 mph - N/A   Clear
10:52 PM 33.1 °F 26.9 °F 30.9 °F 92% 30.17 in 5.0 mi SSE 6.9 mph - N/A   Clear
11:52 PM 32.0 °F 25.6 °F 30.2 °F 93% 30.15 in 5.0 mi SSE 6.9 mph - N/A   Clear